STARLINK-5614, 55756

Orbit data source: Space-Track

STARLINK-5614, 55756 is a payload satellite owned by SpaceX/Seattle (US) in LEO that was launched on Fri, 03 Mar 2023 UTC via an FALCON 9 launch vehicle from the Air Force Western Test Range (AFWTR). Payload-class satellites include a variety of spacecraft equipped with specific instruments for various scientific and technological missions. These include communications satellites like Starlink; space stations such as the ISS; scientific satellites like the Hubble; Earth observation satellites from companies like Planet Labs, Umbra, and HawkEye 360; GPS; miniature CubeSats for education and research; and military/defense satellites.

Loading next visibility...
Identifier
55756, 2023-028R
Orbit
LEO
Country
Flag of USUS
Related business
Manufacturer
SpaceX/Seattle
Mission
Operational Commercial Communications
Bus & Motor
STARLINK, Unknown motor
Mass
305 kg wet, ~290 kg dry
Launch date (UTC)
2023-03-03 (3 years ago)
Launch vehicle
FALCON 9
Launch site
Air Force Western Test Range (AFWTR)
Object type
Payload
Rocket body
Debris
Shape & HBR
Box + 1 Pan, 10.1 m
Radar Cross Section
11.087 m², Large (>1 m²)

Expand to show TLE details & history
Last TLE update: 3 days ago

TLE from 3 days ago
0 STARLINK-5614
1 55756U 23028R   26170.89159248 -.00000309  00000-0 -18127-4 0  9992
2 55756  69.9999 346.5818 0002665 265.8432  94.2423 14.98328769181354
Epoch: 2026-06-19T21:23Z
TLE epoch observation values (Epoch: 2026-06-19T21:23:53.590Z)
Latitude
0.00004°
Longitude
117.49446°
Altitude
574.621 km
Speed
7.574 km/s
True Right ascension
23h 06m 19s
True Declination
0° 00' 00"
Sunlit
Object was in daylight at epoch
Visualization orbit readout
Latitude
Unknown
Longitude
Unknown
Altitude
Unknown
Speed
Unknown
Apparent Right ascension
Unknown
Apparent Declination
Unknown
Sunlit
N/A
Visualization observer readout
Local Sidereal Time
21:29:30
Azimuth
Unknown
Elevation
Unknown
Doppler factor
Unknown
Orbital elements
Apogee altitude
571.86 km
Perigee altitude
568.156 km
Semi-major axis
6,948.145 km
Eccentricity
0.00027
Inclination
69.9999°
RAAN
346.5818°
Arg. of periapsis
265.8432°
True anomaly
94.27275°
Mean anomaly
94.2423°
Eccentric anomaly
94.25753°
Mean motion
3.74748 °/min
Orbital period
96.06 mins
BSTAR
-0.000018127
Loading maneuver chart data...
Computing Atmospheric mass density...
Loading historical data...
Loading historical data...
Loading historical data...
Loading historical data...
Loading historical data...
Loading historical data...
Loading historical data...

Documentation

Showing up to 5 results
|